SKYSAT-A

Last updated on Sun Dec 14 2025 00:02:32 GMT+0000 (Coordinated Universal Time)

1 39418U 13066C 25347.13793102 .00005491 00000+0 32538-3 0 9990 2 39418 97.4113 37.3343 0020664 234.9675 124.9617 15.11610457660361
UTC large
Height (km)
Speed (km/s)
/
Latitude / Longitude
Inclination (degrees)
Orbital Period (minutes)
Azimuth
Elevation
Range (km)
Doppler Factor

Next 0 passes for location: London (51.5072 / 0.1276)

Sorry there are no passes over London.